DIRECTV 15 (40663 NORAD) Tracking and Keplerian Element Data

This shows tracking and keplerian element data for the satellite.

Feedback or suggestion? Click here.




ElementValue
Catalog40663
NameDIRECTV 15
Epoch Orbit3866
Epoch Day353.81745256
Epoch Year2025
RAAN339.1795
Inclination0.0174
Eccentricity2.08E-05
Argument of Perigee140.8553
Mean Anonmoly160.0394
Mean Motion1.00271591
Decay Rate-7.8E-07
L11 40663U 15026A 25353.81745256 -.00000078 00000+0 00000+0 0 9993
L22 40663 0.0174 339.1795 0000208 140.8553 160.0394 1.00271591 38668



Live tracking and technical data element details for DIRECTV 15 (NORAD 40663). DIRECTV 15 can be tracked NOW for your location showing map with azimuth and elevation plus other details from your city location.







IsCatalogInMostPopularTable: catalog: 40663, numindb: 1205
Update: records affected: 1



GetName: 40663 DIRECTV 15

Hit Count: updated at: Sat, 18 Apr 2026 16:09:10 GMT